This is the latest recevied weather packets stored in our database for station/object SQ4IXR-4. If no packets are shown the sender has not sent any weather packets the latest 10 day(s).
| Time | Temp. | Humidity | Pressure | Rain* | Wind** | Luminosity | Snow |
|---|---|---|---|---|---|---|---|
| 1788574929 | 17.78° C | 10% | - | - | - | - | - |
| 1788574108 | 18.33° C | 10% | - | - | - | - | - |
| 1788573284 | 18.89° C | 96% | 1006.3 hPa | - | - | - | - |
| 1788572461 | 18.89° C | 95% | 1006 hPa | - | - | - | - |
| 1788571638 | 18.89° C | 94% | 1005.6 hPa | - | - | - | - |
| 1788570814 | 18.89° C | 92% | 1005.9 hPa | - | - | - | - |
| 1788569991 | 19.44° C | 91% | 1005.8 hPa | - | - | - | - |
| 1788569168 | 19.44° C | 90% | 1005.8 hPa | - | - | - | - |
| 1788568346 | 19.44° C | 83% | 1005.6 hPa | - | - | - | - |
| 1788567520 | 19.44° C | 82% | 1005.5 hPa | - | - | - | - |
| 1788566697 | 19.44° C | 83% | 1005.3 hPa | - | - | - | - |
| 1788565873 | 19.44° C | 86% | 1005.2 hPa | - | - | - | - |
| 1788565050 | 19.44° C | 80% | 1004.9 hPa | - | - | - | - |
| 1788564226 | 19.44° C | 78% | 1004.6 hPa | - | - | - | - |
| 1788563405 | 20° C | 84% | 1004.4 hPa | - | - | - | - |
| 1788562581 | 20.56° C | 88% | 1004.2 hPa | - | - | - | - |
| 1788561757 | 20.56° C | 92% | 1004 hPa | - | - | - | - |
| 1788560934 | 20.56° C | 98% | 1004 hPa | - | - | - | - |
| 1788560111 | 20.56° C | 97% | 1004 hPa | - | - | - | - |
| 1788559288 | 21.11° C | 95% | 1003.8 hPa | - | - | - | - |
| 1788558465 | 21.11° C | 94% | 1003.4 hPa | - | - | - | - |
| 1788557643 | 21.11° C | 89% | 1003.6 hPa | - | - | - | - |
| 1788556820 | 21.67° C | 87% | 1003.6 hPa | - | - | - | - |
| 1788555997 | 22.22° C | 84% | 1003.4 hPa | - | - | - | - |
| 1788555174 | 22.22° C | 81% | 1003.1 hPa | - | - | - | - |
* Rain since midnight (hover to see other rain measurements)
** Current wind speed in m/s (hover to see current wind gust speed)